• In Belgien
  • Länderverzeichnis
  • Für 7 Tage
  • Wassertemperatur
  • Satellitenkarten
  • Wetterkarte
  • Widgets
  • user-avatar
    Anmelden

    Stündliche Wetter Cairns

    Heute, 20 Oktober, Freitag

    Zeit Temperatur Niederschläge Wind Luftdruck Luftfeuchtigkeit
    00:00 +25°C° 0,3 mm 3 m/S 760 mmHg 95%
    01:00 +25°C° 0,3 mm 3 m/S 760 mmHg 96%
    02:00 +25°C° 0,4 mm 3 m/S 760 mmHg 96%
    03:00 +25°C° 0,4 mm 3 m/S 759 mmHg 96%
    04:00 +25°C° 0 mm 4 m/S 759 mmHg 96%
    05:00 +25°C° 0,4 mm 4 m/S 759 mmHg 94%
    06:00 +26°C° 0,4 mm 4 m/S 760 mmHg 93%
    07:00 +26°C° 0,4 mm 4 m/S 760 mmHg 91%
    08:00 +27°C° 0,8 mm 4 m/S 760 mmHg 87%
    09:00 +28°C° 0,8 mm 5 m/S 761 mmHg 83%
    10:00 +29°C° 0 mm 5 m/S 761 mmHg 81%
    11:00 +29°C° 0,5 mm 5 m/S 761 mmHg 80%
    12:00 +29°C° 0,5 mm 5 m/S 760 mmHg 78%
    13:00 +30°C° 0,5 mm 5 m/S 760 mmHg 76%
    14:00 +29°C° 0,4 mm 5 m/S 760 mmHg 78%
    15:00 +29°C° 0,4 mm 5 m/S 759 mmHg 79%
    16:00 +28°C° 0 mm 5 m/S 759 mmHg 81%
    17:00 +28°C° 0,3 mm 5 m/S 759 mmHg 85%
    18:00 +27°C° 0,3 mm 4 m/S 760 mmHg 88%
    19:00 +26°C° 0,3 mm 4 m/S 760 mmHg 92%
    20:00 +26°C° 0,4 mm 4 m/S 760 mmHg 93%
    21:00 +26°C° 0,4 mm 3 m/S 760 mmHg 94%
    22:00 +25°C° 0 mm 3 m/S 761 mmHg 95%
    23:00 +25°C° 0,3 mm 3 m/S 760 mmHg 95%

    Morgen, 21 Oktober, Samstag

    Zeit Temperatur Niederschläge Wind Luftdruck Luftfeuchtigkeit
    00:00 +25°C° 0,3 mm 3 m/S 760 mmHg 96%
    01:00 +25°C° 0,3 mm 3 m/S 760 mmHg 96%
    02:00 +25°C° 0,1 mm 3 m/S 759 mmHg 96%
    03:00 +25°C° 0,1 mm 3 m/S 759 mmHg 96%
    04:00 +25°C° 0,1 mm 3 m/S 759 mmHg 97%
    05:00 +25°C° 0 mm 3 m/S 759 mmHg 95%
    06:00 +25°C° 0 mm 2 m/S 759 mmHg 93%
    07:00 +26°C° 0 mm 2 m/S 759 mmHg 92%
    08:00 +27°C° 0,2 mm 2 m/S 759 mmHg 85%
    09:00 +29°C° 0,2 mm 2 m/S 759 mmHg 79%
    10:00 +30°C° 0,2 mm 2 m/S 759 mmHg 72%
    11:00 +31°C° 0,5 mm 3 m/S 759 mmHg 70%
    12:00 +31°C° 0,5 mm 3 m/S 758 mmHg 69%
    13:00 +33°C° 0,5 mm 3 m/S 758 mmHg 67%
    14:00 +33°C° 0,7 mm 3 m/S 757 mmHg 70%
    15:00 +31°C° 0,7 mm 3 m/S 757 mmHg 73%
    16:00 +30°C° 0,7 mm 2 m/S 756 mmHg 76%
    17:00 +29°C° 0,3 mm 2 m/S 757 mmHg 82%
    18:00 +28°C° 0,3 mm 2 m/S 757 mmHg 88%
    19:00 +26°C° 0,3 mm 2 m/S 757 mmHg 93%
    20:00 +26°C° 0,3 mm 2 m/S 757 mmHg 93%
    21:00 +26°C° 0,3 mm 2 m/S 758 mmHg 93%
    22:00 +26°C° 0,3 mm 2 m/S 758 mmHg 93%
    23:00 +26°C° 0,6 mm 2 m/S 758 mmHg 95%

    übermorgen, 22 Oktober, Sonntag

    Zeit Temperatur Niederschläge Wind Luftdruck Luftfeuchtigkeit
    00:00 +26°C° 0,6 mm 1 m/S 757 mmHg 96%
    01:00 +25°C° 0,6 mm 1 m/S 757 mmHg 97%
    02:00 +25°C° 0,6 mm 1 m/S 757 mmHg 97%
    03:00 +25°C° 0,6 mm 2 m/S 756 mmHg 97%
    04:00 +25°C° 0,6 mm 2 m/S 756 mmHg 97%
    05:00 +25°C° 0,1 mm 2 m/S 757 mmHg 95%
    06:00 +26°C° 0,1 mm 2 m/S 757 mmHg 93%
    07:00 +26°C° 0,1 mm 2 m/S 757 mmHg 91%
    08:00 +28°C° 0,1 mm 2 m/S 758 mmHg 84%
    09:00 +29°C° 0,1 mm 2 m/S 758 mmHg 77%
    10:00 +31°C° 0,1 mm 2 m/S 758 mmHg 70%
    11:00 +31°C° 0,4 mm 2 m/S 757 mmHg 70%
    12:00 +31°C° 0,4 mm 2 m/S 757 mmHg 71%
    13:00 +31°C° 0,4 mm 3 m/S 756 mmHg 71%
    14:00 +30°C° 0,4 mm 2 m/S 756 mmHg 73%
    15:00 +30°C° 0,4 mm 2 m/S 756 mmHg 76%
    16:00 +29°C° 0,4 mm 2 m/S 755 mmHg 78%
    17:00 +28°C° 0,2 mm 2 m/S 756 mmHg 83%
    18:00 +27°C° 0,2 mm 2 m/S 756 mmHg 88%
    19:00 +26°C° 0,2 mm 1 m/S 757 mmHg 93%
    20:00 +26°C° 0,2 mm 1 m/S 757 mmHg 94%
    21:00 +25°C° 0,2 mm 1 m/S 758 mmHg 95%
    22:00 +25°C° 0,2 mm 1 m/S 758 mmHg 95%
    23:00 +25°C° 0 mm 1 m/S 758 mmHg 95%

    23 Oktober, Montag

    Zeit Temperatur Niederschläge Wind Luftdruck Luftfeuchtigkeit
    00:00 +25°C° 0 mm 1 m/S 758 mmHg 96%
    01:00 +25°C° 0 mm 1 m/S 758 mmHg 96%
    02:00 +24°C° 0 mm 1 m/S 757 mmHg 96%
    03:00 +24°C° 0 mm 1 m/S 757 mmHg 96%
    04:00 +24°C° 0 mm 1 m/S 757 mmHg 97%
    05:00 +24°C° 0 mm 1 m/S 758 mmHg 93%
    06:00 +25°C° 0 mm 1 m/S 758 mmHg 89%
    07:00 +25°C° 0 mm 1 m/S 759 mmHg 85%
    08:00 +28°C° 0 mm 1 m/S 759 mmHg 74%
    09:00 +30°C° 0 mm 2 m/S 759 mmHg 63%
    10:00 +32°C° 0 mm 2 m/S 759 mmHg 51%
    11:00 +34°C° 0 mm 2 m/S 759 mmHg 50%
    12:00 +34°C° 0 mm 3 m/S 759 mmHg 49%
    13:00 +35°C° 0 mm 3 m/S 758 mmHg 48%
    14:00 +34°C° 0,1 mm 3 m/S 758 mmHg 53%
    15:00 +33°C° 0,1 mm 3 m/S 758 mmHg 58%
    16:00 +31°C° 0,1 mm 3 m/S 758 mmHg 63%
    17:00 +29°C° 0 mm 3 m/S 758 mmHg 71%
    18:00 +28°C° 0 mm 3 m/S 759 mmHg 78%
    19:00 +26°C° 0 mm 3 m/S 759 mmHg 86%
    20:00 +26°C° 0 mm 2 m/S 760 mmHg 88%
    21:00 +25°C° 0 mm 2 m/S 761 mmHg 90%
    22:00 +25°C° 0 mm 2 m/S 761 mmHg 92%
    23:00 +25°C° 0 mm 2 m/S 761 mmHg 93%

    24 Oktober, Dienstag

    Zeit Temperatur Niederschläge Wind Luftdruck Luftfeuchtigkeit
    00:00 +24°C° 0 mm 2 m/S 760 mmHg 93%
    01:00 +24°C° 0 mm 2 m/S 760 mmHg 94%
    02:00 +24°C° 0 mm 2 m/S 760 mmHg 94%
    03:00 +24°C° 0 mm 2 m/S 760 mmHg 95%
    04:00 +24°C° 0 mm 2 m/S 760 mmHg 96%
    05:00 +24°C° 0 mm 2 m/S 760 mmHg 93%
    06:00 +25°C° 0 mm 3 m/S 761 mmHg 91%
    07:00 +25°C° 0 mm 3 m/S 762 mmHg 89%
    08:00 +27°C° 0 mm 3 m/S 762 mmHg 80%
    09:00 +29°C° 0 mm 4 m/S 763 mmHg 71%
    10:00 +30°C° 0 mm 4 m/S 763 mmHg 62%
    11:00 +32°C° 0 mm 4 m/S 762 mmHg 58%
    12:00 +33°C° 0 mm 4 m/S 762 mmHg 55%
    13:00 +33°C° 0 mm 5 m/S 761 mmHg 51%
    14:00 +33°C° 0 mm 5 m/S 761 mmHg 52%
    15:00 +32°C° 0 mm 5 m/S 761 mmHg 53%
    16:00 +30°C° 0 mm 5 m/S 760 mmHg 55%
    17:00 +29°C° 0 mm 4 m/S 761 mmHg 64%
    18:00 +27°C° 0 mm 4 m/S 761 mmHg 73%
    19:00 +25°C° 0 mm 4 m/S 762 mmHg 82%
    20:00 +25°C° 0 mm 4 m/S 762 mmHg 84%
    21:00 +23°C° 0 mm 4 m/S 763 mmHg 87%
    22:00 +23°C° 0 mm 4 m/S 763 mmHg 89%
    23:00 +23°C° 0 mm 4 m/S 763 mmHg 90%

    25 Oktober, Mittwoch

    Zeit Temperatur Niederschläge Wind Luftdruck Luftfeuchtigkeit
    00:00 +22°C° 0 mm 4 m/S 762 mmHg 91%
    01:00 +22°C° 0 mm 4 m/S 762 mmHg 91%
    02:00 +22°C° 0 mm 4 m/S 762 mmHg 92%
    03:00 +22°C° 0 mm 4 m/S 761 mmHg 92%
    04:00 +21°C° 0 mm 4 m/S 761 mmHg 93%
    05:00 +22°C° 0 mm 4 m/S 762 mmHg 90%
    06:00 +23°C° 0 mm 4 m/S 762 mmHg 87%
    07:00 +25°C° 0 mm 4 m/S 763 mmHg 84%
    08:00 +26°C° 0 mm 4 m/S 763 mmHg 74%
    09:00 +28°C° 0 mm 5 m/S 763 mmHg 65%
    10:00 +30°C° 0 mm 5 m/S 763 mmHg 56%
    11:00 +32°C° 0 mm 5 m/S 762 mmHg 53%
    12:00 +32°C° 0 mm 5 m/S 762 mmHg 50%
    13:00 +33°C° 0 mm 5 m/S 761 mmHg 47%
    14:00 +33°C° 0 mm 5 m/S 761 mmHg 49%
    15:00 +32°C° 0 mm 5 m/S 760 mmHg 51%
    16:00 +32°C° 0 mm 5 m/S 760 mmHg 52%
    17:00 +29°C° 0 mm 4 m/S 760 mmHg 62%
    18:00 +27°C° 0 mm 4 m/S 761 mmHg 71%
    19:00 +25°C° 0 mm 4 m/S 761 mmHg 80%
    20:00 +23°C° 0 mm 4 m/S 762 mmHg 83%
    21:00 +24°C° 0 mm 3 m/S 762 mmHg 86%
    22:00 +22°C° 0 mm 3 m/S 762 mmHg 89%
    23:00 +21°C° 0 mm 3 m/S 762 mmHg 91%
    Mehr zeigen